PSA4366 KLBB-KDFW

Flight info

Callsign PSA4366
Flight time 0h 44m
Altitude 31000
Route HNKER JOVEM6
Aircraft CRJ9/M-SDFGIRWY/S

Departure

Time 2026-05-07 00:13
Airport Lubbock Preston Smith International Airport (KLBB)

Arrival

Time 2026-05-07 00:58
Airport Dallas Fort Worth International Airport (KDFW)
Time Latitude Longitude Altitude Speed Heading
2026-05-06 23:38 33.65735 -101.82258 3265 ft 0 kts 182°
2026-05-07 00:07 33.65745 -101.82258 3265 ft 4 kts 182°
2026-05-07 00:07 33.65772 -101.82257 3265 ft 4 kts 184°
2026-05-07 00:07 33.65796 -101.82249 3265 ft 4 kts 218°
2026-05-07 00:08 33.65804 -101.82235 3265 ft 1 kts 244°
2026-05-07 00:08 33.65805 -101.82233 3265 ft 0 kts 244°
2026-05-07 00:09 33.65804 -101.82233 3265 ft 0 kts 244°
2026-05-07 00:09 33.65804 -101.82234 3265 ft 0 kts 244°
2026-05-07 00:10 33.65802 -101.82239 3263 ft 1 kts 248°
2026-05-07 00:10 33.65798 -101.82252 3265 ft 2 kts 254°
2026-05-07 00:10 33.65799 -101.82278 3264 ft 3 kts 293°
2026-05-07 00:10 33.65818 -101.82305 3264 ft 6 kts 318°
2026-05-07 00:11 33.65848 -101.82334 3265 ft 5 kts 327°
2026-05-07 00:11 33.65875 -101.82352 3264 ft 5 kts 333°
2026-05-07 00:11 33.65930 -101.82374 3265 ft 13 kts 347°
2026-05-07 00:11 33.66026 -101.82343 3264 ft 10 kts 70°
2026-05-07 00:12 33.66062 -101.82277 3266 ft 10 kts 22°
2026-05-07 00:12 33.66144 -101.82267 3267 ft 12 kts 359°
2026-05-07 00:12 33.66214 -101.82250 3268 ft 9 kts 60°
2026-05-07 00:12 33.66224 -101.82170 3266 ft 19 kts 89°
2026-05-07 00:13 33.66225 -101.81745 3267 ft 86 kts 89°
2026-05-07 00:13 33.66230 -101.80759 3261 ft 146 kts 89°
2026-05-07 00:13 33.66234 -101.79418 3565 ft 172 kts 92°
2026-05-07 00:13 33.66217 -101.77978 4370 ft 175 kts 92°
2026-05-07 00:14 33.66346 -101.76402 4636 ft 214 kts 71°
2026-05-07 00:14 33.66760 -101.74614 5236 ft 234 kts 86°
2026-05-07 00:14 33.66847 -101.72597 6030 ft 249 kts 88°
2026-05-07 00:14 33.66864 -101.72090 6234 ft 253 kts 88°
2026-05-07 00:15 33.66938 -101.69941 7077 ft 264 kts 88°
2026-05-07 00:15 33.67031 -101.67696 7773 ft 280 kts 88°
2026-05-07 00:15 33.67171 -101.65295 8451 ft 296 kts 84°
2026-05-07 00:15 33.67380 -101.62787 9218 ft 309 kts 83°
2026-05-07 00:16 33.67619 -101.60165 9970 ft 321 kts 83°
2026-05-07 00:16 33.67852 -101.57503 10765 ft 328 kts 83°
2026-05-07 00:16 33.68080 -101.54858 11552 ft 334 kts 83°
2026-05-07 00:16 33.68289 -101.52344 12286 ft 339 kts 84°
2026-05-07 00:17 33.68482 -101.50028 12948 ft 344 kts 84°
2026-05-07 00:17 33.68718 -101.47152 13713 ft 353 kts 84°
2026-05-07 00:17 33.68944 -101.44496 13952 ft 374 kts 84°
2026-05-07 00:17 33.69166 -101.41841 14178 ft 393 kts 84°
2026-05-07 00:18 33.69397 -101.39064 14454 ft 408 kts 84°
2026-05-07 00:18 33.69659 -101.35842 14811 ft 424 kts 84°
2026-05-07 00:18 33.69943 -101.32367 15222 ft 439 kts 85°
2026-05-07 00:18 33.70239 -101.28749 15840 ft 446 kts 85°
2026-05-07 00:19 33.70543 -101.25054 16471 ft 453 kts 85°
2026-05-07 00:19 33.70740 -101.22595 16881 ft 458 kts 85°
2026-05-07 00:19 33.71047 -101.18786 17499 ft 464 kts 86°
2026-05-07 00:19 33.71344 -101.15026 18080 ft 471 kts 86°
2026-05-07 00:20 33.71661 -101.11134 18623 ft 477 kts 86°
2026-05-07 00:20 33.71978 -101.07188 19134 ft 482 kts 86°
2026-05-07 00:20 33.72283 -101.03339 19624 ft 488 kts 86°
2026-05-07 00:20 33.72558 -100.99848 20061 ft 493 kts 86°
2026-05-07 00:21 33.72738 -100.97557 20340 ft 495 kts 87°
2026-05-07 00:21 33.73052 -100.93529 20807 ft 501 kts 87°
2026-05-07 00:21 33.73374 -100.89470 21253 ft 506 kts 87°
2026-05-07 00:21 33.73703 -100.85268 21710 ft 511 kts 87°
2026-05-07 00:22 33.74026 -100.81112 22120 ft 516 kts 87°
2026-05-07 00:22 33.74365 -100.76799 22588 ft 519 kts 88°
2026-05-07 00:22 33.74698 -100.72460 23021 ft 523 kts 88°
2026-05-07 00:22 33.75020 -100.68234 23453 ft 528 kts 88°
2026-05-07 00:23 33.75351 -100.63894 23810 ft 532 kts 88°
2026-05-07 00:23 33.75687 -100.59544 24167 ft 535 kts 88°
2026-05-07 00:23 33.76026 -100.55084 24539 ft 538 kts 88°
2026-05-07 00:23 33.76361 -100.50630 24891 ft 541 kts 88°
2026-05-07 00:24 33.76701 -100.46116 25237 ft 544 kts 88°
2026-05-07 00:24 33.77037 -100.41605 25571 ft 547 kts 88°
2026-05-07 00:24 33.77366 -100.37042 25893 ft 550 kts 89°
2026-05-07 00:24 33.77782 -100.32514 26173 ft 556 kts 82°
2026-05-07 00:25 33.78782 -100.28035 26483 ft 561 kts 72°
2026-05-07 00:25 33.80037 -100.23646 26700 ft 566 kts 71°
2026-05-07 00:25 33.81246 -100.19219 26970 ft 568 kts 74°
2026-05-07 00:25 33.82219 -100.14961 27234 ft 570 kts 77°
2026-05-07 00:26 33.83171 -100.10349 27509 ft 572 kts 78°
2026-05-07 00:26 33.84108 -100.05873 27762 ft 575 kts 77°
2026-05-07 00:26 33.85166 -100.01213 28032 ft 578 kts 76°
2026-05-07 00:26 33.85740 -99.98748 28166 ft 579 kts 76°
2026-05-07 00:27 33.86835 -99.94056 28414 ft 582 kts 76°
2026-05-07 00:27 33.87921 -99.89386 28668 ft 584 kts 76°
2026-05-07 00:27 33.88985 -99.84684 28866 ft 588 kts 77°
2026-05-07 00:27 33.90053 -99.79922 28941 ft 593 kts 76°
2026-05-07 00:28 33.91119 -99.75200 28972 ft 579 kts 76°
2026-05-07 00:28 33.92161 -99.70523 28980 ft 576 kts 76°
2026-05-07 00:28 33.94236 -99.61237 28992 ft 575 kts 76°
2026-05-07 00:29 33.96226 -99.51919 28982 ft 572 kts 84°
2026-05-07 00:30 33.94439 -99.38498 29013 ft 530 kts 127°
2026-05-07 00:30 33.92713 -99.34572 29014 ft 529 kts 128°
2026-05-07 00:30 33.89838 -99.26367 29008 ft 543 kts 118°
2026-05-07 00:31 33.87355 -99.17752 28999 ft 544 kts 118°
2026-05-07 00:31 33.84718 -99.09253 28985 ft 541 kts 120°
2026-05-07 00:32 33.82057 -99.00787 28996 ft 541 kts 120°
2026-05-07 00:32 33.79825 -98.93717 29010 ft 542 kts 120°
2026-05-07 00:33 33.77147 -98.85239 29021 ft 542 kts 120°
2026-05-07 00:33 33.74455 -98.76773 29017 ft 542 kts 120°
2026-05-07 00:34 33.71715 -98.68328 29018 ft 542 kts 121°
2026-05-07 00:34 33.69025 -98.59836 29021 ft 544 kts 120°
2026-05-07 00:35 33.66361 -98.51325 29021 ft 544 kts 120°
2026-05-07 00:35 33.63652 -98.42858 29001 ft 543 kts 120°
2026-05-07 00:36 33.60956 -98.34447 29012 ft 544 kts 120°
2026-05-07 00:36 33.58240 -98.25980 29012 ft 544 kts 120°
2026-05-07 00:37 33.55488 -98.17464 29016 ft 544 kts 120°
2026-05-07 00:37 33.52799 -98.09040 29014 ft 545 kts 120°
2026-05-07 00:38 33.50060 -98.00576 29014 ft 545 kts 120°
2026-05-07 00:38 33.47800 -97.93660 28287 ft 534 kts 120°
2026-05-07 00:39 33.46468 -97.89565 27625 ft 523 kts 120°
2026-05-07 00:39 33.45167 -97.85541 26963 ft 513 kts 120°
2026-05-07 00:39 33.43888 -97.81571 26177 ft 508 kts 119°
2026-05-07 00:39 33.42625 -97.77646 25423 ft 501 kts 119°
2026-05-07 00:40 33.41369 -97.73782 24674 ft 497 kts 119°
2026-05-07 00:40 33.40141 -97.69980 23921 ft 493 kts 118°
2026-05-07 00:40 33.38876 -97.66227 23105 ft 485 kts 123°
2026-05-07 00:40 33.37126 -97.62981 22249 ft 465 kts 137°
2026-05-07 00:41 33.35058 -97.60060 21412 ft 454 kts 142°
2026-05-07 00:41 33.32795 -97.57416 20580 ft 445 kts 146°
2026-05-07 00:41 33.30522 -97.54916 19766 ft 442 kts 146°
2026-05-07 00:41 33.28302 -97.52451 19011 ft 439 kts 145°
2026-05-07 00:42 33.26120 -97.49927 18216 ft 437 kts 143°
2026-05-07 00:42 33.23976 -97.47365 17333 ft 433 kts 143°
2026-05-07 00:42 33.21828 -97.44842 16480 ft 429 kts 143°
2026-05-07 00:42 33.19716 -97.42365 15643 ft 425 kts 142°
2026-05-07 00:43 33.17655 -97.39951 14868 ft 421 kts 142°
2026-05-07 00:43 33.15567 -97.37525 14083 ft 417 kts 142°
2026-05-07 00:43 33.13511 -97.35124 13601 ft 403 kts 142°
2026-05-07 00:43 33.11600 -97.32877 13691 ft 378 kts 141°
2026-05-07 00:44 33.09788 -97.30721 13720 ft 358 kts 142°
2026-05-07 00:44 33.08077 -97.28669 13728 ft 341 kts 142°
2026-05-07 00:44 33.06439 -97.26729 13728 ft 325 kts 143°
2026-05-07 00:44 33.04856 -97.24882 13729 ft 311 kts 144°
2026-05-07 00:45 33.03334 -97.23117 13728 ft 299 kts 144°
2026-05-07 00:45 33.01862 -97.21406 13555 ft 295 kts 144°
2026-05-07 00:45 33.00381 -97.19697 13149 ft 299 kts 144°
2026-05-07 00:45 32.99402 -97.18584 12858 ft 302 kts 144°
2026-05-07 00:46 32.97748 -97.17081 12410 ft 292 kts 165°
2026-05-07 00:46 32.95834 -97.16662 12014 ft 276 kts 187°
2026-05-07 00:46 32.93930 -97.16686 11602 ft 273 kts 188°
2026-05-07 00:46 32.92032 -97.16734 11199 ft 272 kts 187°
2026-05-07 00:47 32.90147 -97.16707 10862 ft 270 kts 185°
2026-05-07 00:47 32.88275 -97.16596 10527 ft 268 kts 183°
2026-05-07 00:47 32.86422 -97.16470 10200 ft 265 kts 184°
2026-05-07 00:47 32.84591 -97.16367 9902 ft 261 kts 184°
2026-05-07 00:48 32.82788 -97.16268 9590 ft 257 kts 184°
2026-05-07 00:48 32.81009 -97.16176 9281 ft 254 kts 184°
2026-05-07 00:48 32.79272 -97.16095 9000 ft 251 kts 184°
2026-05-07 00:48 32.77512 -97.16058 8508 ft 255 kts 185°
2026-05-07 00:49 32.75731 -97.16058 7996 ft 259 kts 185°
2026-05-07 00:49 32.73923 -97.16064 7522 ft 261 kts 185°
2026-05-07 00:49 32.72096 -97.16084 7069 ft 263 kts 185°
2026-05-07 00:49 32.70298 -97.16113 6847 ft 254 kts 185°
2026-05-07 00:50 32.68549 -97.16118 6613 ft 248 kts 184°
2026-05-07 00:50 32.66841 -97.16118 6349 ft 243 kts 184°
2026-05-07 00:50 32.65169 -97.16120 6078 ft 238 kts 183°
2026-05-07 00:50 32.63531 -97.16120 5832 ft 233 kts 183°
2026-05-07 00:51 32.61932 -97.16067 5578 ft 229 kts 172°
2026-05-07 00:51 32.60551 -97.15200 5303 ft 228 kts 130°
2026-05-07 00:51 32.59950 -97.13524 5083 ft 219 kts 91°
2026-05-07 00:51 32.59893 -97.11758 4868 ft 214 kts 89°
2026-05-07 00:52 32.60038 -97.10039 4588 ft 206 kts 60°
2026-05-07 00:52 32.60993 -97.08935 4344 ft 189 kts 13°
2026-05-07 00:52 32.62213 -97.09037 4155 ft 174 kts 331°
2026-05-07 00:52 32.63308 -97.09581 3861 ft 171 kts 358°
2026-05-07 00:53 32.64428 -97.09167 3634 ft 178 kts 25°
2026-05-07 00:53 32.65658 -97.08459 3575 ft 213 kts 22°
2026-05-07 00:53 32.67079 -97.07760 3708 ft 224 kts 18°
2026-05-07 00:53 32.68544 -97.07261 3620 ft 216 kts 12°
2026-05-07 00:54 32.70004 -97.06892 3417 ft 212 kts 11°
2026-05-07 00:54 32.71440 -97.06551 3213 ft 208 kts 11°
2026-05-07 00:54 32.72822 -97.06199 3094 ft 201 kts 12°
2026-05-07 00:54 32.74162 -97.05835 3029 ft 194 kts 13°
2026-05-07 00:55 32.75490 -97.05510 2675 ft 203 kts
2026-05-07 00:55 32.76890 -97.05423 2362 ft 198 kts
2026-05-07 00:55 32.78233 -97.05448 2157 ft 184 kts
2026-05-07 00:55 32.79399 -97.05492 2190 ft 155 kts 359°
2026-05-07 00:56 32.80395 -97.05520 1962 ft 128 kts
2026-05-07 00:56 32.81202 -97.05549 1651 ft 113 kts
2026-05-07 00:56 32.82134 -97.05530 1472 ft 147 kts
2026-05-07 00:56 32.83205 -97.05493 1520 ft 158 kts
2026-05-07 00:57 32.83938 -97.05478 1446 ft 156 kts
2026-05-07 00:57 32.85004 -97.05494 1167 ft 161 kts
2026-05-07 00:57 32.86133 -97.05498 952 ft 157 kts
2026-05-07 00:57 32.87226 -97.05482 778 ft 163 kts
2026-05-07 00:58 32.88260 -97.05475 601 ft 144 kts
2026-05-07 00:58 32.89124 -97.05471 597 ft 97 kts
2026-05-07 00:58 32.89399 -97.05446 596 ft 14 kts 60°
2026-05-07 00:58 32.89406 -97.05365 596 ft 6 kts 93°
2026-05-07 00:59 32.89403 -97.05245 596 ft 8 kts 92°